When you browse on this site, cookies collect data to enhance your experience and personalize the content and advertising you see.
Visit our Privacy Policy to learn more. By continuing to use the site, you agree to this use of cookies and data.
  • In Hungary
  • List of Countries
  • For 7 days
  • Water Temperature
  • Weather Map
  • News
  • Weather Widgets
  • user-avatar
    Login

    Hourly Weather Somma Lombardo

    Today, 20 November, Wednesday

    Time Temperature Precipitation Wind Pressure Humidity
    00:00 +9°C° 0.6 mm 1 mps 737 mmHg 90%
    01:00 +9°C° 0.6 mm 1 mps 736 mmHg 90%
    02:00 +9°C° 0.4 mm 1 mps 736 mmHg 90%
    03:00 +9°C° 0.4 mm 1 mps 736 mmHg 90%
    04:00 +9°C° 0.4 mm 1 mps 736 mmHg 90%
    05:00 +9°C° 0.1 mm 1 mps 736 mmHg 90%
    06:00 +10°C° 0.1 mm 1 mps 736 mmHg 90%
    07:00 +10°C° 0.1 mm 1 mps 736 mmHg 90%
    08:00 +10°C° 0 mm 1 mps 735 mmHg 89%
    09:00 +9°C° 0 mm 0 mps 735 mmHg 87%
    10:00 +10°C° 0 mm 0 mps 735 mmHg 86%
    11:00 +11°C° 0 mm 1 mps 735 mmHg 83%
    12:00 +12°C° 0 mm 1 mps 735 mmHg 81%
    13:00 +13°C° 0 mm 1 mps 735 mmHg 79%
    14:00 +12°C° 0 mm 1 mps 734 mmHg 81%
    15:00 +12°C° 0 mm 1 mps 734 mmHg 83%
    16:00 +12°C° 0 mm 1 mps 734 mmHg 84%
    17:00 +11°C° 0 mm 1 mps 734 mmHg 86%
    18:00 +10°C° 0 mm 1 mps 734 mmHg 88%
    19:00 +10°C° 0 mm 1 mps 734 mmHg 90%
    20:00 +10°C° 0 mm 1 mps 734 mmHg 90%
    21:00 +10°C° 0 mm 1 mps 735 mmHg 89%
    22:00 +9°C° 0 mm 1 mps 735 mmHg 89%
    23:00 +9°C° 0 mm 1 mps 735 mmHg 88%

    Tomorrow, 21 November, Thursday

    Time Temperature Precipitation Wind Pressure Humidity
    00:00 +9°C° 0 mm 1 mps 734 mmHg 88%
    01:00 +8°C° 0 mm 0 mps 734 mmHg 87%
    02:00 +9°C° 0 mm 1 mps 734 mmHg 87%
    03:00 +9°C° 0 mm 1 mps 734 mmHg 86%
    04:00 +9°C° 0 mm 1 mps 734 mmHg 85%
    05:00 +9°C° 0 mm 1 mps 734 mmHg 85%
    06:00 +8°C° 0 mm 1 mps 734 mmHg 86%
    07:00 +7°C° 0 mm 0 mps 734 mmHg 86%
    08:00 +8°C° 0 mm 0 mps 734 mmHg 84%
    09:00 +8°C° 0 mm 0 mps 734 mmHg 81%
    10:00 +9°C° 0 mm 0 mps 734 mmHg 78%
    11:00 +10°C° 0.2 mm 0 mps 734 mmHg 78%
    12:00 +11°C° 0.2 mm 1 mps 734 mmHg 78%
    13:00 +11°C° 0.2 mm 1 mps 733 mmHg 78%
    14:00 +11°C° 0.2 mm 1 mps 733 mmHg 80%
    15:00 +11°C° 0.2 mm 1 mps 733 mmHg 82%
    16:00 +10°C° 0.2 mm 1 mps 733 mmHg 85%
    17:00 +10°C° 0.2 mm 1 mps 733 mmHg 86%
    18:00 +9°C° 0.2 mm 1 mps 734 mmHg 87%
    19:00 +9°C° 0.2 mm 1 mps 734 mmHg 89%
    20:00 +9°C° 0.1 mm 1 mps 735 mmHg 89%
    21:00 +9°C° 0.1 mm 1 mps 735 mmHg 88%
    22:00 +9°C° 0.1 mm 1 mps 735 mmHg 88%
    23:00 +8°C° 0.1 mm 1 mps 735 mmHg 88%

    Day after tomorrow, 22 November, Friday

    Time Temperature Precipitation Wind Pressure Humidity
    00:00 +8°C° 0.1 mm 1 mps 735 mmHg 88%
    01:00 +8°C° 0.1 mm 1 mps 735 mmHg 88%
    02:00 +8°C° 0 mm 1 mps 735 mmHg 88%
    03:00 +8°C° 0 mm 1 mps 735 mmHg 88%
    04:00 +8°C° 0 mm 1 mps 735 mmHg 87%
    05:00 +8°C° 0.3 mm 1 mps 735 mmHg 87%
    06:00 +8°C° 0.3 mm 1 mps 735 mmHg 87%
    07:00 +8°C° 0.3 mm 1 mps 735 mmHg 87%
    08:00 +8°C° 0.8 mm 1 mps 735 mmHg 87%
    09:00 +8°C° 0.8 mm 1 mps 735 mmHg 87%
    10:00 +8°C° 0.8 mm 1 mps 735 mmHg 88%
    11:00 +8°C° 0.8 mm 1 mps 734 mmHg 88%
    12:00 +8°C° 0.8 mm 1 mps 734 mmHg 89%
    13:00 +8°C° 0.8 mm 1 mps 734 mmHg 90%
    14:00 +8°C° 0.1 mm 1 mps 733 mmHg 89%
    15:00 +9°C° 0.1 mm 1 mps 733 mmHg 88%
    16:00 +9°C° 0.1 mm 1 mps 733 mmHg 87%
    17:00 +9°C° 0.1 mm 1 mps 733 mmHg 87%
    18:00 +9°C° 0.1 mm 1 mps 733 mmHg 87%
    19:00 +9°C° 0.1 mm 1 mps 734 mmHg 87%
    20:00 +9°C° 0.3 mm 1 mps 734 mmHg 88%
    21:00 +9°C° 0.3 mm 1 mps 734 mmHg 88%
    22:00 +9°C° 0.3 mm 1 mps 734 mmHg 89%
    23:00 +9°C° 0.9 mm 1 mps 733 mmHg 90%

    23 November, Saturday

    Time Temperature Precipitation Wind Pressure Humidity
    00:00 +9°C° 0.9 mm 1 mps 733 mmHg 91%
    01:00 +9°C° 0.9 mm 1 mps 733 mmHg 92%
    02:00 +9°C° 1.6 mm 1 mps 732 mmHg 92%
    03:00 +8°C° 1.6 mm 2 mps 732 mmHg 92%
    04:00 +8°C° 1.6 mm 2 mps 732 mmHg 92%
    05:00 +8°C° 2.5 mm 2 mps 731 mmHg 93%
    06:00 +8°C° 2.5 mm 2 mps 731 mmHg 93%
    07:00 +8°C° 2.5 mm 2 mps 731 mmHg 93%
    08:00 +8°C° 1.6 mm 2 mps 731 mmHg 92%
    09:00 +8°C° 1.6 mm 2 mps 731 mmHg 91%
    10:00 +8°C° 1.6 mm 2 mps 730 mmHg 90%
    11:00 +8°C° 1.2 mm 2 mps 730 mmHg 90%
    12:00 +8°C° 1.2 mm 2 mps 730 mmHg 89%
    13:00 +9°C° 1.2 mm 3 mps 729 mmHg 88%
    14:00 +9°C° 1.5 mm 3 mps 729 mmHg 89%
    15:00 +9°C° 1.5 mm 3 mps 729 mmHg 90%
    16:00 +9°C° 1.5 mm 3 mps 729 mmHg 91%
    17:00 +9°C° 2.1 mm 3 mps 729 mmHg 90%
    18:00 +9°C° 2.1 mm 3 mps 729 mmHg 90%
    19:00 +8°C° 2.1 mm 4 mps 730 mmHg 90%
    20:00 +9°C° 1.8 mm 3 mps 730 mmHg 89%
    21:00 +9°C° 1.8 mm 3 mps 730 mmHg 89%
    22:00 +9°C° 1.8 mm 2 mps 730 mmHg 88%
    23:00 +9°C° 1.3 mm 2 mps 730 mmHg 88%

    24 November, Sunday

    Time Temperature Precipitation Wind Pressure Humidity
    00:00 +9°C° 1.3 mm 2 mps 730 mmHg 89%
    01:00 +9°C° 1.3 mm 2 mps 730 mmHg 89%
    02:00 +9°C° 0.7 mm 3 mps 730 mmHg 88%
    03:00 +9°C° 0.7 mm 3 mps 730 mmHg 86%
    04:00 +10°C° 0.7 mm 3 mps 730 mmHg 85%
    05:00 +10°C° 0.6 mm 3 mps 731 mmHg 84%
    06:00 +10°C° 0.6 mm 3 mps 731 mmHg 84%
    07:00 +10°C° 0.6 mm 3 mps 731 mmHg 83%
    08:00 +10°C° 0.1 mm 3 mps 732 mmHg 81%
    09:00 +10°C° 0.1 mm 3 mps 732 mmHg 79%
    10:00 +12°C° 0.1 mm 2 mps 733 mmHg 77%
    11:00 +13°C° 0 mm 2 mps 733 mmHg 74%
    12:00 +14°C° 0 mm 2 mps 733 mmHg 71%
    13:00 +14°C° 0 mm 2 mps 733 mmHg 68%
    14:00 +14°C° 0 mm 1 mps 733 mmHg 70%
    15:00 +14°C° 0 mm 1 mps 733 mmHg 72%
    16:00 +13°C° 0 mm 1 mps 733 mmHg 74%
    17:00 +12°C° 0 mm 1 mps 733 mmHg 75%
    18:00 +12°C° 0 mm 1 mps 733 mmHg 76%
    19:00 +11°C° 0 mm 1 mps 734 mmHg 77%
    20:00 +10°C° 0 mm 1 mps 734 mmHg 76%
    21:00 +9°C° 0 mm 2 mps 734 mmHg 75%
    22:00 +9°C° 0 mm 2 mps 734 mmHg 75%
    23:00 +9°C° 0 mm 2 mps 734 mmHg 74%

    25 November, Monday

    Time Temperature Precipitation Wind Pressure Humidity
    00:00 +8°C° 0 mm 2 mps 734 mmHg 73%
    01:00 +8°C° 0 mm 2 mps 734 mmHg 72%
    02:00 +8°C° 0 mm 2 mps 734 mmHg 72%
    03:00 +8°C° 0 mm 2 mps 733 mmHg 71%
    04:00 +8°C° 0 mm 2 mps 733 mmHg 71%
    05:00 +8°C° 0 mm 2 mps 733 mmHg 71%
    06:00 +8°C° 0 mm 1 mps 733 mmHg 71%
    07:00 +8°C° 0 mm 1 mps 733 mmHg 71%
    08:00 +9°C° 0 mm 1 mps 733 mmHg 70%
    09:00 +10°C° 0 mm 1 mps 733 mmHg 68%
    10:00 +11°C° 0 mm 1 mps 733 mmHg 66%
    11:00 +12°C° 0 mm 1 mps 733 mmHg 64%
    12:00 +12°C° 0 mm 0 mps 732 mmHg 62%
    13:00 +13°C° 0 mm 0 mps 732 mmHg 60%
    14:00 +12°C° 0 mm 0 mps 732 mmHg 63%
    15:00 +12°C° 0 mm 0 mps 732 mmHg 65%
    16:00 +11°C° 0 mm 0 mps 732 mmHg 68%
    17:00 +11°C° 0 mm 0 mps 732 mmHg 69%
    18:00 +11°C° 0 mm 1 mps 732 mmHg 71%
    19:00 +10°C° 0 mm 1 mps 732 mmHg 72%
    20:00 +10°C° 0 mm 1 mps 733 mmHg 73%
    21:00 +10°C° 0 mm 1 mps 733 mmHg 73%
    22:00 +9°C° 0 mm 1 mps 733 mmHg 74%
    23:00 +9°C° 0 mm 1 mps 733 mmHg 73%
    Show more